#timestamp,LO_Frequency,Hit 
1501855215.2,286047020.6,N
1501855235.1,286047025.2,N
1501855236.0,286047025.2,N
1501855255.8,286047021.1,N
1501855275.6,286047019.6,N
1501855295.5,286047022.6,N
1501855315.3,286047023.1,P
1501855335.1,286047007.0,P
1501855355.9,286047005.0,N
1501855375.7,286047001.8,N
1501855395.5,286047003.3,N
1501855415.4,286047001.3,N
1501855435.2,286047001.5,N
1501855455.0,286047003.6,N
1501855455.9,286047003.6,N
1501855475.8,286046999.8,N
1501855495.6,286047002.7,N
1501855515.4,286047001.3,N
1501855535.3,286047002.0,N
1501855555.1,286047002.1,N
1501855556.0,286047002.1,N
1501855575.8,286047004.9,N
1501855595.6,286047006.2,N
1501855615.5,286047006.3,N
1501855635.3,286047009.6,N
1501855655.1,286047014.7,N
1501855675.9,286047019.8,P
1501855695.7,286047014.9,N
1501855715.5,286047017.2,N
1501855735.4,286047016.5,P
1501855755.2,286047004.0,P
1501855775.1,286046997.1,N
1501855776.0,286046997.1,N
1501855795.8,286046995.0,N
1501855815.6,286046996.8,N
1501855835.4,286046993.0,N
1501855855.3,286046990.1,N
1501855875.1,286046995.5,N
1501855895.8,286047000.9,N
1501855915.7,286047004.5,N
1501855935.5,286047010.2,N
1501855955.3,286047014.6,N
1501855975.2,286047016.4,N
1501855995.9,286047021.9,N
1501856015.7,286047022.1,N
1501856035.6,286047024.2,N
1501856055.4,286047028.2,N
1501856075.2,286047029.9,N
1501856095.0,286047028.5,N
1501856096.0,286047028.5,N
1501856115.8,286047025.3,N
1501856135.6,286047024.7,N
1501856155.4,286047019.1,N
1501856175.3,286047016.3,N
1501856195.1,286047009.7,N
1501856215.8,286047005.7,N
1501856235.7,286047003.3,N
1501856255.5,286047001.6,N
1501856275.3,286047000.9,N
1501856295.2,286046996.7,N
1501856315.9,286046995.7,N
1501856335.7,286046997.3,N
1501856355.6,286046996.5,N
1501856375.4,286047000.5,N
1501856395.2,286047001.9,N
1501856415.1,286047008.3,N
1501856416.0,286047008.3,N
1501856435.8,286047011.4,N
1501856455.6,286047012.7,N
1501856475.5,286047017.9,N
1501856495.3,286047021.5,N
1501856515.1,286047022.9,N
1501856535.8,286047025.2,N
1501856555.7,286047020.6,N
1501856575.5,286047020.1,N
1501856595.3,286047017.1,N
1501856615.2,286047016.4,N
1501856635.9,286047017.8,N
1501856655.7,286047013.2,N
1501856675.6,286047014.2,N
1501856695.4,286047018.3,N
1501856715.2,286047017.5,N
1501856735.1,286047018.4,N
1501856736.0,286047018.4,N
1501856755.8,286047017.6,N
1501856775.6,286047026.1,N
1501856795.5,286047027.4,N
1501856815.3,286047029.5,P
1501856835.1,286047016.4,N
1501856855.9,286047015.0,N
1501856875.7,286047010.7,N
1501856895.5,286047003.5,N
1501856915.4,286047000.6,N
1501856935.2,286046993.3,N
1501856955.0,286046994.8,N
1501856955.9,286046994.8,N
1501856975.8,286046993.9,N
1501856995.6,286046997.9,N
1501857015.4,286047002.8,N
1501857035.2,286047005.6,N
1501857055.1,286047008.0,N
1501857056.0,286047008.0,N
1501857075.8,286047010.9,N
1501857095.6,286047011.3,N
1501857115.5,286047016.7,N
1501857135.3,286047019.5,N
1501857155.1,286047021.3,N
1501857175.9,286047025.1,N
1501857195.7,286047021.7,N
1501857215.5,286047022.1,N
1501857235.4,286047024.7,N
1501857255.2,286047022.8,N
1501857275.0,286047024.1,N
1501857275.9,286047024.1,N
1501857295.8,286047027.6,N
1501857315.6,286047030.9,N
1501857335.4,286047033.4,N
1501857355.3,286047039.2,P
1501857375.1,286047027.5,N
1501857376.0,286047027.5,N
1501857395.8,286047029.5,P
1501857415.7,286047000.1,N
1501857435.5,286047003.6,N
1501857455.3,286047000.0,N
1501857475.2,286047002.7,N
1501857495.9,286047005.2,N
1501857515.7,286047004.0,N
1501857535.6,286047001.2,N
1501857555.4,286046998.2,N
1501857575.2,286047000.1,N
1501857595.1,286046999.7,N
1501857596.0,286046999.7,N
1501857615.8,286046996.5,N
1501857635.6,286046999.4,N
1501857655.5,286047000.5,N
1501857675.3,286047002.1,N
1501857695.1,286047005.5,N
1501857715.8,286047004.7,N
1501857735.7,286047006.4,N
1501857755.5,286047008.2,N
1501857775.3,286047010.5,N
1501857795.2,286047010.1,N
1501857815.9,286047013.9,N
1501857835.7,286047011.0,N
1501857855.6,286047009.0,N
1501857875.4,286047010.0,N
1501857895.2,286047012.2,N
1501857915.1,286047012.5,N
1501857916.0,286047012.5,N
1501857935.8,286047016.6,N
1501857955.6,286047015.4,N
1501857975.5,286047014.8,N
1501857995.3,286047013.0,N
1501858015.1,286047015.6,N
1501858035.9,286047010.1,N
1501858055.7,286047004.7,N
1501858075.5,286046998.2,N
1501858095.3,286046989.2,N
1501858115.2,286046982.3,N
1501858135.0,286046981.4,N
1501858135.9,286046981.4,N
1501858155.7,286046983.5,N
1501858175.6,286046982.0,N
1501858195.4,286046981.9,N
1501858215.2,286046983.4,N
1501858235.1,286046980.9,N
1501858236.0,286046980.9,N
1501858255.8,286046981.6,N
1501858275.6,286046974.9,N
1501858295.5,286046972.2,N
1501858315.3,286046970.7,N
1501858335.1,286046967.9,N
1501858355.9,286046964.6,N
1501858375.7,286046967.3,N
1501858395.5,286046970.9,N
1501858415.4,286046972.9,N
1501858435.2,286046976.4,N
1501858455.0,286046978.2,N
1501858455.9,286046978.2,N
1501858475.8,286046981.6,N
1501858495.6,286046984.2,N
1501858515.4,286046984.8,N
1501858535.3,286046982.1,N
1501858555.1,286046984.1,N
1501858556.0,286046984.1,N
1501858575.8,286046985.0,N
1501858595.6,286046982.5,N
1501858615.5,286046979.5,P
1501858635.3,286047000.6,N
1501858655.2,286046997.9,N
1501858675.9,286046996.4,N
1501858695.7,286046994.4,N
1501858715.5,286046987.4,N
1501858735.4,286046987.9,N
1501858755.2,286046982.4,N
1501858775.0,286046980.4,N
1501858775.9,286046980.4,N
1501858795.8,286046977.9,N
